Weather Roundup
Issued by NWS Corpus Christi, TX

Home | Current Version | Previous Version | Text Only | Print | Product List | Glossary On
Versions: 1 2 3 4 5 6 7 8 9 10 11 12 13 14 15 16 17 18 19 20 21 22 23 24 25 26 27 28 29 30 31 32 33 34 35 36 37 38 39 40 41 42 43 44 45 46 47 48 49 50
000
ASUS44 KCRP 260510
HRRCRP

SOUTH TEXAS REGIONAL WEATHER ROUNDUP
NATIONAL WEATHER SERVICE CORPUS CHRISTI TX
1200 AM CDT SUN APR 26 2015


TXZ229>244-260600-
...CORPUS CHRISTI AREA OBSERVATIONS...

CITY           SKY/WX    TMP DP  RH WIND       PRES   REMARKS
CORPUS CHRISTI CLOUDY    75  73  93 SE7       29.73F FOG
NAS CORPUS CHR CLOUDY    75  75 100 S8        29.73F FOG
ROCKPORT       CLOUDY    75  73  93 SE6       29.72F FOG
KINGSVILLE NAS CLOUDY    77  76  96 E3        29.73F FOG
ALICE          CLOUDY    77  72  84 SE7       29.73S
FALFURRIAS     CLOUDY    77  73  89 SE7       29.74S
$$

...VICTORIA AREA OBSERVATIONS...

CITY           SKY/WX    TMP DP  RH WIND       PRES   REMARKS
VICTORIA       MOCLDY    70  70 100 SE6       29.74F
BEEVILLE       CLOUDY    71  71 100 S6        29.74S FOG
PLEASANTON     MOCLDY    74  71  90 SE8G17    29.74R
SAN ANTONIO    PTCLDY    75  70  84 S9        29.74S
$$

...LAREDO AREA OBSERVATIONS...

CITY           SKY/WX    TMP DP  RH WIND       PRES   REMARKS
LAREDO         CLEAR     78  74  87 SE13      29.74S
COTULLA        CLEAR     75  71  87 SE5       29.72S
DEL RIO        CLEAR     72  58  61 E6        29.71R
MCALLEN        PTCLDY    81  75  82 E5        29.74S
HEBBRONVILLE   CLEAR     74  72  91 SE8       29.76S FOG
$$

...OTHER TEXAS OBSERVATIONS...

CITY           SKY/WX    TMP DP  RH WIND       PRES   REMARKS
BROWNSVILLE    CLOUDY    80  77  90 E3        29.73F FOG
HOUSTON        MOCLDY    71  67  87 S7        29.74S
COL. STATION   PTCLDY    73  70  90 S8        29.73R
AUSTIN         PTCLDY    72  68  87 S7        29.72S
WACO           CLEAR     64  59  83 S8        29.70S
FORT WORTH     CLEAR     67  55  65 S8        29.68S
WICHITA FALLS  CLEAR     64  49  57 SW10      29.65S
LUBBOCK        CLEAR     63  27  25 SW10      29.73S
EL PASO        PTCLDY    69  21  16 SW16      29.81S
$$

...MARINE OBSERVATIONS...

STATION/POSITION TIME  SKY/WX   TEMP    WIND        PRES    VSBY  WAVE   SWELL
                                AIR SEA DIR/SP/G                  HT/PER HT/PER
                 (UTC)          (F)     (DEG/KT/KT) (MB)    (MI)  (FT/S) (FT/S)
PORT ARANSAS     0500            73 75  150/ 10/ 11 1007.2F
BUOY 90 E PORT A 0450            76 76  160/  8/ 10 1007.3R         3/ 5   3/ 5
BUOY 45 SE BAFFI 0450            76 76  130/  4/  6 1006.5F         3/ 6   3/ 6
BUOY 200 E PT IS 0450            80 80  130/ 10/ 14 1007.2F         3/ 6   2/ 6
BUOY 15 E GALVES 0450            73 74  170/  6/  8 1006.7F         2/ 6   2/ 6
$$


USA.gov is the U.S. government's official web portal to all federal, state and local government web resources and services.